| time (UTC) | temp F | wind direction | speed MPH | gust MPH | rain 1hr in | rain 24hr in | rain mn in | humidity % | barometer mb |
| 20260903143046 | 59 | 188 | 0.0 | 7.0 | 0.05 | 0.10 | 0.09 | 93 | 1014.4 |
| 20260903141544 | 59 | 183 | 1.0 | 4.0 | 0.05 | 0.09 | 0.08 | 93 | 1014.2 |
| 20260903140044 | 59 | 200 | 1.0 | 7.0 | 0.04 | 0.08 | 0.07 | 93 | 1014.2 |
| 20260903134541 | 59 | 181 | 0.0 | 7.0 | 0.04 | 0.16 | 0.06 | 92 | 1014.2 |
| 20260903133048 | 59 | 194 | 0.0 | 5.0 | 0.02 | 0.14 | 0.04 | 92 | 1014.3 |
| 20260903131538 | 58 | 193 | 0.0 | 0.0 | 0.02 | 0.13 | 0.03 | 92 | 1014.3 |
| 20260903130037 | 58 | 193 | 0.0 | 1.0 | 0.02 | 0.13 | 0.03 | 92 | 1014.4 |
| 20260903124534 | 57 | 193 | 0.0 | 0.0 | 0.01 | 0.18 | 0.02 | 92 | 1014.6 |
| 20260903123034 | 57 | 193 | 0.0 | 0.0 | 0.02 | 0.18 | 0.02 | 91 | 1014.8 |
| 20260903121536 | 57 | 193 | 0.0 | 1.0 | 0.01 | 0.17 | 0.01 | 91 | 1015.0 |
| 20260903120041 | 57 | 193 | 0.0 | 0.0 | 0.01 | 0.17 | 0.01 | 91 | 1015.0 |
| 20260903114527 | 57 | 193 | 0.0 | 0.0 | 0.01 | 0.23 | 0.01 | 91 | 1015.0 |
| 20260903113026 | 57 | 193 | 0.0 | 0.0 | 0.00 | 0.22 | 0.00 | 91 | 1015.1 |
| 20260903111525 | 57 | 193 | 0.0 | 0.0 | 0.00 | 0.22 | 0.00 | 91 | 1015.2 |
| 20260903110023 | 57 | 193 | 0.0 | 0.0 | 0.00 | 0.22 | 0.00 | 91 | 1015.3 |
| 20260903104523 | 57 | 193 | 0.0 | 0.0 | 0.00 | 0.22 | 0.00 | 91 | 1015.4 |
| 20260903103021 | 57 | 193 | 0.0 | 0.0 | 0.00 | 0.22 | 0.00 | 91 | 1015.4 |
| 20260903101520 | 57 | 193 | 0.0 | 0.0 | 0.00 | 0.22 | 0.00 | 90 | 1015.5 |
| 20260903100018 | 57 | 193 | 0.0 | 0.0 | 0.00 | 0.22 | 0.00 | 90 | 1015.6 |
| 20260903094517 | 56 | 193 | 0.0 | 0.0 | 0.00 | 0.23 | 0.00 | 90 | 1015.7 |
| 20260903093015 | 56 | 193 | 0.0 | 0.0 | 0.00 | 0.23 | 0.00 | 91 | 1015.8 |
| 20260903091517 | 56 | 193 | 0.0 | 0.0 | 0.00 | 0.23 | 0.00 | 91 | 1016.1 |
| 20260903090011 | 56 | 193 | 0.0 | 0.0 | 0.00 | 0.23 | 0.00 | 91 | 1016.1 |
| 20260903084511 | 56 | 193 | 0.0 | 0.0 | 0.00 | 0.23 | 0.00 | 90 | 1016.2 |
| 20260903083010 | 56 | 193 | 0.0 | 0.0 | 0.00 | 0.23 | 0.00 | 90 | 1016.3 |
| 20260903081508 | 56 | 193 | 0.0 | 0.0 | 0.00 | 0.23 | 0.00 | 90 | 1016.4 |
| 20260903080008 | 56 | 193 | 0.0 | 0.0 | 0.00 | 0.23 | 0.00 | 91 | 1016.4 |
| 20260903074507 | 56 | 193 | 0.0 | 0.0 | 0.00 | 0.23 | 0.00 | 91 | 1016.4 |
| 20260903073004 | 56 | 193 | 0.0 | 0.0 | 0.00 | 0.23 | 0.00 | 91 | 1016.5 |
| 20260903071503 | 56 | 193 | 0.0 | 0.0 | 0.00 | 0.23 | 0.00 | 91 | 1016.6 |
| 20260903070005 | 56 | 193 | 0.0 | 0.0 | 0.00 | 0.23 | 0.00 | 91 | 1016.6 |
| 20260903064502 | 55 | 193 | 0.0 | 0.0 | 0.00 | 0.23 | 0.23 | 91 | 1016.6 |
| 20260903063000 | 55 | 193 | 0.0 | 0.0 | 0.00 | 0.23 | 0.23 | 91 | 1016.8 |
| 20260903061610 | 55 | 193 | 0.0 | 0.0 | 0.00 | 0.23 | 0.23 | 91 | 1016.9 |
| 20260903060059 | 55 | 193 | 0.0 | 0.0 | 0.00 | 0.23 | 0.23 | 91 | 1016.9 |
| 20260903054604 | 56 | 193 | 0.0 | 0.0 | 0.00 | 0.23 | 0.23 | 91 | 1016.8 |
| 20260903053058 | 56 | 193 | 0.0 | 0.0 | 0.00 | 0.23 | 0.23 | 91 | 1016.9 |
| 20260903051558 | 57 | 193 | 0.0 | 0.0 | 0.00 | 0.23 | 0.23 | 91 | 1017.0 |
| 20260903050057 | 57 | 193 | 0.0 | 0.0 | 0.00 | 0.23 | 0.23 | 90 | 1017.1 |
| 20260903044559 | 58 | 193 | 0.0 | 0.0 | 0.00 | 0.23 | 0.23 | 90 | 1017.1 |
| 20260903043056 | 58 | 193 | 0.0 | 0.0 | 0.00 | 0.23 | 0.23 | 90 | 1017.1 |
| 20260903041610 | 59 | 193 | 0.0 | 0.0 | 0.00 | 0.23 | 0.23 | 89 | 1017.0 |
| 20260903040056 | 59 | 193 | 0.0 | 0.0 | 0.00 | 0.23 | 0.23 | 89 | 1016.9 |
| 20260903034555 | 59 | 193 | 0.0 | 0.0 | 0.00 | 0.23 | 0.23 | 88 | 1016.8 |
| 20260903033054 | 60 | 193 | 0.0 | 0.0 | 0.00 | 0.23 | 0.23 | 87 | 1016.7 |
| 20260903031554 | 60 | 193 | 0.0 | 0.0 | 0.00 | 0.23 | 0.23 | 87 | 1016.5 |
| 20260903030054 | 61 | 193 | 0.0 | 2.0 | 0.00 | 0.23 | 0.23 | 85 | 1016.4 |
| 20260903024555 | 61 | 193 | 0.0 | 2.0 | 0.00 | 0.23 | 0.23 | 85 | 1016.5 |
| 20260903023052 | 61 | 193 | 0.0 | 0.0 | 0.00 | 0.23 | 0.23 | 84 | 1016.5 |
| 20260903021552 | 62 | 193 | 0.0 | 3.0 | 0.00 | 0.23 | 0.23 | 83 | 1016.6 |
| 20260903020054 | 62 | 173 | 0.0 | 4.0 | 0.00 | 0.23 | 0.23 | 82 | 1016.6 |
| 20260903014611 | 62 | 188 | 1.0 | 6.0 | 0.00 | 0.23 | 0.23 | 80 | 1016.7 |
| 20260903013101 | 63 | 142 | 0.0 | 6.0 | 0.00 | 0.23 | 0.23 | 78 | 1016.7 |
| 20260903011614 | 65 | 172 | 2.0 | 8.0 | 0.00 | 0.23 | 0.23 | 75 | 1016.8 |
| 20260903010105 | 65 | 18 | 0.0 | 3.0 | 0.00 | 0.23 | 0.23 | 74 | 1016.7 |
| 20260903004549 | 66 | 183 | 1.0 | 8.0 | 0.00 | 0.23 | 0.23 | 71 | 1016.7 |
| 20260903003104 | 67 | 317 | 0.0 | 6.0 | 0.00 | 0.23 | 0.23 | 72 | 1016.6 |
| 20260903001556 | 69 | 169 | 0.0 | 6.0 | 0.00 | 0.23 | 0.23 | 69 | 1016.7 |
| 20260903000049 | 70 | 240 | 3.0 | 9.0 | 0.00 | 0.23 | 0.23 | 65 | 1016.8 |
| 20260902234546 | 71 | 195 | 0.0 | 5.0 | 0.00 | 0.23 | 0.23 | 64 | 1016.8 |
| 20260902233045 | 70 | 176 | 1.0 | 12.0 | 0.00 | 0.23 | 0.23 | 62 | 1016.9 |
| 20260902231548 | 70 | 177 | 0.0 | 10.0 | 0.00 | 0.23 | 0.23 | 65 | 1017.0 |
| 20260902230053 | 70 | 184 | 1.0 | 10.0 | 0.00 | 0.23 | 0.23 | 66 | 1017.2 |
| 20260902224543 | 71 | 280 | 0.0 | 8.0 | 0.00 | 0.23 | 0.23 | 64 | 1017.3 |
| 20260902223043 | 71 | 153 | 3.0 | 10.0 | 0.00 | 0.23 | 0.23 | 64 | 1017.3 |
| 20260902221538 | 70 | 238 | 3.0 | 9.0 | 0.00 | 0.23 | 0.23 | 66 | 1017.3 |
| 20260902220042 | 69 | 174 | 1.0 | 9.0 | 0.00 | 0.23 | 0.23 | 65 | 1017.4 |
| 20260902214541 | 69 | 169 | 1.0 | 9.0 | 0.00 | 0.23 | 0.23 | 70 | 1017.5 |
| 20260902213034 | 69 | 184 | 1.0 | 8.0 | 0.00 | 0.23 | 0.23 | 70 | 1017.5 |
| 20260902211533 | 69 | 236 | 1.0 | 6.0 | 0.00 | 0.23 | 0.23 | 68 | 1017.6 |
| 20260902210032 | 69 | 148 | 2.0 | 7.0 | 0.00 | 0.23 | 0.23 | 70 | 1017.6 |
| 20260902204529 | 68 | 346 | 0.0 | 7.0 | 0.00 | 0.23 | 0.23 | 71 | 1017.6 |
| 20260902203026 | 67 | 274 | 0.0 | 8.0 | 0.00 | 0.23 | 0.23 | 74 | 1017.7 |
| 20260902201525 | 67 | 203 | 2.0 | 6.0 | 0.00 | 0.23 | 0.23 | 72 | 1017.8 |
| 20260902200026 | 67 | 22 | 0.0 | 4.0 | 0.00 | 0.23 | 0.23 | 76 | 1017.8 |
| 20260902194535 | 66 | 238 | 1.0 | 7.0 | 0.00 | 0.23 | 0.23 | 77 | 1018.0 |
| 20260902193018 | 66 | 355 | 0.0 | 6.0 | 0.00 | 0.23 | 0.23 | 79 | 1018.0 |
| 20260902191515 | 65 | 184 | 0.0 | 3.0 | 0.00 | 0.23 | 0.23 | 81 | 1018.2 |
| 20260902190015 | 64 | 184 | 1.0 | 6.0 | 0.00 | 0.23 | 0.23 | 81 | 1018.2 |
| 20260902184514 | 65 | 193 | 1.0 | 9.0 | 0.00 | 0.23 | 0.23 | 85 | 1018.2 |
| 20260902183010 | 63 | 201 | 0.0 | 6.0 | 0.00 | 0.23 | 0.23 | 88 | 1018.2 |
| 20260902181506 | 62 | 192 | 1.0 | 5.0 | 0.00 | 0.23 | 0.23 | 89 | 1018.2 |
| 20260902180004 | 60 | 202 | 2.0 | 8.0 | 0.00 | 0.23 | 0.23 | 90 | 1017.9 |
| 20260902174501 | 60 | 236 | 1.0 | 6.0 | 0.00 | 0.23 | 0.23 | 92 | 1017.9 |
| 20260902173100 | 59 | 186 | 0.0 | 6.0 | 0.00 | 0.23 | 0.23 | 93 | 1017.8 |
| 20260902171600 | 59 | 223 | 0.0 | 3.0 | 0.00 | 0.23 | 0.23 | 93 | 1017.6 |
| 20260902170057 | 59 | 207 | 0.0 | 4.0 | 0.00 | 0.23 | 0.23 | 93 | 1017.5 |
| 20260902164557 | 58 | 188 | 0.0 | 4.0 | 0.00 | 0.23 | 0.23 | 93 | 1017.2 |
| 20260902163054 | 58 | 200 | 0.0 | 3.0 | 0.00 | 0.23 | 0.23 | 93 | 1017.2 |
| 20260902161556 | 58 | 178 | 0.0 | 4.0 | 0.01 | 0.23 | 0.23 | 93 | 1017.1 |
| 20260902160106 | 58 | 180 | 2.0 | 7.0 | 0.01 | 0.23 | 0.23 | 93 | 1017.0 |
| 20260902154559 | 58 | 213 | 0.0 | 4.0 | 0.01 | 0.23 | 0.23 | 93 | 1017.1 |
| 20260902153050 | 58 | 213 | 0.0 | 1.0 | 0.01 | 0.23 | 0.23 | 93 | 1017.0 |
| 20260902151553 | 57 | 211 | 0.0 | 4.0 | 0.00 | 0.22 | 0.22 | 93 | 1016.9 |
| 20260902150049 | 57 | 196 | 0.0 | 0.0 | 0.00 | 0.22 | 0.22 | 92 | 1016.9 |
| 20260902144549 | 57 | 196 | 0.0 | 2.0 | 0.02 | 0.22 | 0.22 | 92 | 1016.9 |